TimeCDT,TemperatureF,Dew PointF,Humidity,Sea Level PressureIn,VisibilityMPH,Wind Direction,Wind SpeedMPH,Gust SpeedMPH,PrecipitationIn,Events,Conditions,WindDirDegrees,DateUTC
12:53 AM,57.0,46.9,69,30.18,10.0,NNW,3.5,-,N/A,,Clear,330,2013-05-13 05:53:00
1:53 AM,55.0,46.0,72,30.18,10.0,NNW,4.6,-,N/A,,Clear,330,2013-05-13 06:53:00
2:53 AM,52.0,46.0,80,30.19,10.0,Calm,Calm,-,N/A,,Clear,0,2013-05-13 07:53:00
3:53 AM,48.9,46.0,90,30.21,10.0,Calm,Calm,-,N/A,,Clear,0,2013-05-13 08:53:00
4:53 AM,46.9,45.0,93,30.22,10.0,Calm,Calm,-,N/A,,Clear,0,2013-05-13 09:53:00
5:53 AM,46.9,45.0,93,30.25,10.0,Calm,Calm,-,N/A,,Clear,0,2013-05-13 10:53:00
6:53 AM,48.9,46.0,90,30.27,10.0,Calm,Calm,-,N/A,,Clear,0,2013-05-13 11:53:00
7:53 AM,57.9,43.0,58,30.29,10.0,NE,4.6,-,N/A,,Clear,40,2013-05-13 12:53:00
8:53 AM,62.1,39.9,44,30.30,10.0,ENE,6.9,-,N/A,,Clear,60,2013-05-13 13:53:00
9:53 AM,66.0,39.9,38,30.30,10.0,NNE,5.8,-,N/A,,Clear,30,2013-05-13 14:53:00
10:53 AM,69.1,35.1,29,30.31,10.0,ENE,6.9,17.3,N/A,,Clear,70,2013-05-13 15:53:00
11:53 AM,71.1,39.0,31,30.31,10.0,ESE,4.6,-,N/A,,Clear,120,2013-05-13 16:53:00
12:53 PM,73.0,39.9,30,30.29,10.0,Variable,3.5,-,N/A,,Clear,0,2013-05-13 17:53:00
1:53 PM,75.0,39.9,28,30.27,10.0,NNE,10.4,-,N/A,,Clear,20,2013-05-13 18:53:00
3:53 PM,75.9,42.1,30,30.24,10.0,WNW,4.6,-,N/A,,Clear,290,2013-05-13 20:53:00
4:53 PM,75.9,43.0,31,30.22,10.0,Calm,Calm,-,N/A,,Clear,0,2013-05-13 21:53:00
5:53 PM,77.0,44.1,31,30.21,10.0,NNE,3.5,-,N/A,,Clear,20,2013-05-13 22:53:00
7:53 PM,66.0,50.0,56,30.21,10.0,Calm,Calm,-,N/A,,Clear,0,2013-05-14 00:53:00
8:53 PM,63.0,55.0,75,30.21,10.0,Calm,Calm,-,N/A,,Clear,0,2013-05-14 01:53:00
9:53 PM,60.1,55.0,83,30.23,10.0,Calm,Calm,-,N/A,,Clear,0,2013-05-14 02:53:00
10:53 PM,57.9,54.0,87,30.22,10.0,Calm,Calm,-,N/A,,Clear,0,2013-05-14 03:53:00
11:53 PM,57.0,53.1,87,30.23,10.0,Calm,Calm,-,N/A,,Clear,0,2013-05-14 04:53:00